Weather History for The Dalles, OR

Change the Weather History Date:

Friday, July 25, 2014

  Actual Average Record
Temperature  
Mean Temperature 70 °F -  
Max Temperature 86 °F 89 °F 107 °F (1996)
Min Temperature 53 °F 60 °F 52 °F (1948)
Cooling Degree Days 4    
Growing Degree Days 20 (Base 50)    
Moisture  
Dew Point 49 °F    
Average Humidity 52    
Maximum Humidity 83    
Minimum Humidity 22    
Precipitation  
Precipitation 0.00 in - - ()
Sea Level Pressure  
Sea Level Pressure 30.04 in    
Wind  
Wind Speed 6 mph (NW)    
Max Wind Speed 15 mph    
Max Gust Speed -    
Visibility 10 miles    
Events      
Averages and records for this station are not official NWS values.
T = Trace of Precipitation, MM = Missing Value Source: NWS Daily Summary

Daily Weather History Graph

Daily Weather History Graph

Search for Another Location

Airport:

Trip Planner

Search our weather history database for the weather conditions in past years. The results will help you decide how hot, cold, wet, or windy it might be!

Date:

Astronomy

Jul. 25, 2014 Rise Set
Actual Time 5:40 AM PDT 8:41 PM PDT
Civil Twilight 5:05 AM PDT 9:16 PM PDT
Nautical Twilight 4:19 AM PDT 10:01 PM PDT
Astronomical Twilight 3:25 AM PDT 10:55 PM PDT
Moon 4:46 AM PDT (7/25) 7:38 PM PDT (7/25)
Length of Visible Light 16h 11m
Length of Day
15h 00m
Waning Crescent, 1% of the Moon is Illuminated
Jul 25
Waning Crescent
Jul 26
New
Aug 3
First Quarter
Aug 10
Full
Aug 17
Last Quarter

Hourly Weather History & Observations

Time (PDT) Temp. Dew Point Humidity Pressure Visibility Wind Dir Wind Speed Gust Speed Precip Events Conditions
12:53 AM 62.1 °F 52.0 °F 70% 30.12 in 10.0 mi NW 5.8 mph - N/A   Clear
1:53 AM 59.0 °F 51.1 °F 75% 30.11 in 10.0 mi NW 4.6 mph - N/A   Clear
2:53 AM 57.9 °F 50.0 °F 75% 30.11 in 10.0 mi Calm Calm - N/A   Clear
3:53 AM 53.1 °F 48.0 °F 83% 30.11 in 10.0 mi West 4.6 mph - N/A   Clear
4:53 AM 54.0 °F 48.0 °F 80% 30.10 in 10.0 mi Calm Calm - N/A   Clear
5:53 AM 53.1 °F 48.0 °F 83% 30.11 in 10.0 mi SW 3.5 mph - N/A   Clear
6:53 AM 55.9 °F 48.9 °F 77% 30.11 in 10.0 mi Calm Calm - N/A   Clear
7:53 AM 59.0 °F 51.1 °F 75% 30.12 in 10.0 mi Calm Calm - N/A   Clear
8:53 AM 63.0 °F 51.1 °F 65% 30.11 in 10.0 mi North 3.5 mph - N/A   Clear
10:53 AM 69.1 °F 48.9 °F 49% 30.08 in 10.0 mi WNW 3.5 mph - N/A   Clear
11:53 AM 73.9 °F 50.0 °F 43% 30.06 in 10.0 mi NNW 5.8 mph - N/A   Clear
12:53 PM 75.9 °F 48.9 °F 38% 30.04 in 10.0 mi WNW 4.6 mph - N/A   Clear
1:53 PM 79.0 °F 48.0 °F 34% 30.01 in 10.0 mi North - - N/A   Clear
2:53 PM 84.9 °F 42.1 °F 22% 29.99 in 10.0 mi NNW 11.5 mph - N/A   Clear
3:53 PM 86.0 °F 45.0 °F 24% 29.97 in 10.0 mi NNW 10.4 mph - N/A   Clear
4:53 PM 86.0 °F 44.1 °F 23% 29.96 in 10.0 mi NW 11.5 mph - N/A   Clear
5:53 PM 84.9 °F 45.0 °F 25% 29.96 in 10.0 mi WNW 13.8 mph - N/A   Clear
6:53 PM 82.0 °F 48.0 °F 30% 29.96 in 10.0 mi West 12.7 mph - N/A   Clear
7:53 PM 78.1 °F 48.9 °F 36% 29.96 in 10.0 mi NW 12.7 mph - N/A   Clear
8:53 PM 75.9 °F 48.9 °F 38% 29.98 in 10.0 mi NNW 10.4 mph - N/A   Clear
9:53 PM 71.1 °F 53.1 °F 53% 30.00 in 10.0 mi NNW 9.2 mph - N/A   Clear
10:53 PM 70.0 °F 52.0 °F 53% 30.01 in 10.0 mi NW 8.1 mph - N/A   Clear
11:53 PM 69.1 °F 52.0 °F 54% 30.01 in 10.0 mi NW 15.0 mph - N/A   Clear